GW4420 Weather Reports


time (UTC)temp
C
wind
direction
speed
KPH
gust
KPH
rain 1hr
cm
rain 24hr
cm
rain mn
cm
humidity
%
barometer
mb
20260510234306 22 39 3.2 9.7 0.00 0.61 0.61 95 1015.8
20260510233801 22 63 3.2 9.7 0.30 0.61 0.61 95 1015.7
20260510233259 22 32 0.0 1.6 0.30 0.58 0.58 95 1015.8
20260510232754 22 50 0.0 3.2 0.36 0.56 0.56 95 1015.8
20260510232250 22 21 1.6 3.2 0.48 0.53 0.53 95 1015.6
20260510231748 22 70 0.0 3.2 0.48 0.48 0.48 95 1015.6
20260510231245 22 36 0.0 3.2 0.30 0.43 0.43 95 1015.9
20260510230741 22 60 1.6 3.2 0.30 0.41 0.41 95 1016.0
20260510230237 22 70 0.0 3.2 0.48 0.38 0.38 95 1016.1
20260510225734 22 84 0.0 3.2 0.43 0.36 0.36 95 1016.2
20260510225229 22 281 3.2 3.2 0.48 0.30 0.30 95 1015.8
20260510224725 22 43 3.2 4.8 0.36 0.28 0.28 95 1016.0
20260510224222 22 59 0.0 4.8 0.13 0.23 0.23 95 1015.9
20260510223720 22 46 3.2 4.8 0.13 0.23 0.23 95 1015.7
20260510223217 22 84 0.0 6.4 0.00 0.20 0.20 95 1015.8
20260510222714 22 63 3.2 6.4 0.18 0.20 0.20 95 1015.6
20260510222211 22 45 3.2 4.8 0.18 0.20 0.20 95 1015.5
20260510221706 22 6 3.2 6.4 0.00 0.18 0.18 94 1015.4
20260510221203 22 7 4.8 6.4 0.13 0.18 0.18 94 1015.5
20260510220659 22 6 1.6 6.4 0.13 0.18 0.18 94 1015.4
20260510220154 22 41 3.2 3.2 0.18 0.15 0.15 94 1015.6
20260510215652 22 44 3.2 3.2 0.18 0.15 0.15 94 1015.6
20260510215150 22 41 1.6 3.2 0.13 0.13 0.13 94 1015.4
20260510214646 22 70 0.0 3.2 0.30 0.13 0.13 94 1015.5
20260510214143 22 27 3.2 6.4 0.18 0.10 0.10 94 1015.4
20260510213640 22 71 3.2 4.8 0.00 0.08 0.08 94 1015.6
20260510213136 22 44 1.6 3.2 0.00 0.08 0.08 94 1015.4
20260510212633 22 61 0.0 3.2 0.13 0.08 0.08 94 1015.3
20260510212130 22 54 1.6 4.8 0.13 0.08 0.08 94 1015.2
20260510211627 22 47 4.8 6.4 0.00 0.05 0.05 94 1015.3
20260510211121 22 54 4.8 9.7 0.00 0.05 0.05 94 1015.1
20260510210618 22 0 6.4 9.7 0.00 0.05 0.05 93 1015.0
20260510210114 22 78 3.2 4.8 0.00 0.05 0.05 93 1015.3
20260510205612 22 80 0.0 6.4 0.18 0.05 0.05 93 1015.1
20260510205108 22 72 3.2 6.4 0.18 0.05 0.05 93 1015.3
20260510204605 22 87 1.6 4.8 0.00 0.03 0.03 93 1015.5
20260510204102 22 93 0.0 4.8 0.13 0.03 0.03 93 1015.4
20260510203559 22 343 4.8 9.7 0.13 0.03 0.03 93 1015.4
20260510203055 22 27 4.8 9.7 0.00 0.00 0.00 92 1015.3
20260510202554 22 47 1.6 9.7 0.00 0.00 0.00 92 1015.4
20260510202051 22 3 1.6 4.8 0.00 0.00 0.00 92 1015.3
20260510201548 22 4 1.6 4.8 0.00 0.00 0.00 92 1015.6
20260510201045 22 0 4.8 6.4 0.00 0.00 0.00 92 1015.5
20260510200540 22 39 3.2 4.8 0.00 0.00 0.00 92 1015.7
20260510200039 22 52 3.2 4.8 0.00 0.00 0.00 92 1015.7
20260510195536 22 82 3.2 4.8 0.00 0.00 0.00 92 1015.8
20260510195032 22 30 3.2 6.4 0.00 0.00 0.00 92 1015.6
20260510194527 22 34 0.0 4.8 0.00 0.00 0.00 92 1015.7
20260510194024 22 56 4.8 6.4 0.00 0.00 0.00 92 1015.7
20260510193519 22 25 1.6 9.7 0.00 0.00 0.00 92 1015.4
20260510193015 22 28 3.2 11.3 0.00 0.00 0.00 92 1015.4
20260510192510 22 85 3.2 3.2 0.00 0.00 0.00 92 1015.7
20260510192006 22 36 3.2 4.8 0.00 0.00 0.00 92 1015.6
20260510191502 22 55 4.8 6.4 0.00 0.00 0.00 92 1015.6
20260510190959 22 38 3.2 6.4 0.00 0.00 0.00 92 1015.7
20260510190456 22 39 1.6 9.7 0.00 0.00 0.00 92 1015.8
20260510185953 22 4 4.8 6.4 0.00 0.00 0.00 92 1015.8
20260510185450 22 94 0.0 4.8 0.00 0.00 0.00 92 1015.8
20260510184948 22 37 4.8 12.9 0.00 0.00 0.00 93 1015.7
20260510184445 22 343 3.2 4.8 0.00 0.00 0.00 93 1016.0
20260510183944 22 51 4.8 14.5 0.00 0.00 0.00 92 1015.7
20260510183441 22 27 3.2 12.9 0.00 0.00 0.00 93 1015.7
20260510182941 22 40 8.0 12.9 0.00 0.00 0.00 92 1015.7
20260510182437 22 59 0.0 14.5 0.00 0.00 0.00 92 1015.5
20260510181933 22 30 6.4 9.7 0.00 0.00 0.00 92 1015.7
20260510181432 22 1 9.7 14.5 0.00 0.00 0.00 92 1015.7
20260510180927 22 46 1.6 9.7 0.00 0.00 0.00 93 1016.0
20260510180424 22 88 4.8 12.9 0.00 0.00 0.00 93 1015.8
20260510175921 22 37 4.8 9.7 0.00 0.00 0.00 93 1016.1
20260510175417 22 64 0.0 4.8 0.00 0.00 0.00 93 1016.2
20260510174913 22 0 8.0 11.3 0.00 0.00 0.00 93 1016.0
20260510174412 22 44 6.4 11.3 0.00 0.00 0.00 93 1016.0
20260510173908 22 26 6.4 12.9 0.00 0.00 0.00 93 1016.1
20260510173403 22 26 6.4 12.9 0.00 0.00 0.00 93 1016.2
20260510172900 22 45 6.4 11.3 0.00 0.00 0.00 93 1016.4
20260510172356 22 47 3.2 12.9 0.00 0.00 0.00 93 1016.5
20260510171852 22 43 11.3 14.5 0.00 0.00 0.00 93 1016.4
20260510171349 21 63 3.2 12.9 0.00 0.00 0.00 93 1016.5
20260510170846 21 54 4.8 12.9 0.00 0.00 0.00 93 1016.8
20260510170343 21 31 8.0 14.5 0.00 0.00 0.00 93 1016.7
20260510165838 21 83 4.8 12.9 0.00 0.00 0.00 93 1016.9
20260510165335 21 26 4.8 11.3 0.00 0.00 0.00 93 1017.0
20260510164832 21 55 8.0 11.3 0.00 0.00 0.00 93 1017.0
20260510164329 21 66 6.4 9.7 0.00 0.00 0.00 93 1017.2
20260510163829 21 7 4.8 9.7 0.00 0.00 0.00 93 1017.3
20260510163326 21 33 4.8 11.3 0.00 0.00 0.00 93 1017.3
20260510162825 21 85 4.8 12.9 0.00 0.00 0.00 93 1017.3
20260510162323 21 7 4.8 14.5 0.00 0.00 0.00 93 1017.4
20260510161818 21 37 4.8 14.5 0.00 0.00 0.00 93 1017.4
20260510161309 21 6 9.7 17.7 0.00 0.00 0.00 93 1017.3
20260510160806 21 61 4.8 12.9 0.00 0.00 0.00 93 1017.2
20260510160302 21 36 12.9 16.1 0.00 0.00 0.00 93 1017.5
20260510155757 21 40 4.8 9.7 0.00 0.00 0.00 93 1017.4
20260510155253 21 336 6.4 12.9 0.00 0.00 0.00 93 1017.6
20260510154749 21 37 4.8 12.9 0.00 0.00 0.00 93 1017.8
20260510154245 21 54 1.6 12.9 0.00 0.00 0.00 93 1017.9
20260510153740 21 29 4.8 12.9 0.00 0.00 0.00 93 1018.1
20260510153236 21 32 3.2 12.9 0.00 0.00 0.00 93 1017.8
20260510152733 21 66 3.2 11.3 0.00 0.00 0.00 93 1017.9
20260510152229 21 31 6.4 9.7 0.00 0.00 0.00 93 1017.9
20260510151726 21 13 6.4 9.7 0.00 0.00 0.00 93 1018.0
20260510151225 21 12 6.4 11.3 0.00 0.00 0.00 93 1018.0
20260510150720 21 24 3.2 16.1 0.00 0.00 0.00 93 1017.9
20260510150215 21 63 3.2 11.3 0.00 0.00 0.00 93 1018.0
20260510145712 21 24 8.0 11.3 0.00 0.33 0.33 93 1018.1
20260510145208 21 47 4.8 14.5 0.00 0.33 0.33 93 1018.2
20260510144705 21 24 6.4 11.3 0.00 0.33 0.33 93 1018.2
20260510144201 21 23 6.4 12.9 0.00 0.33 0.33 93 1018.4
20260510143656 21 8 1.6 12.9 0.00 0.33 0.33 93 1018.3
20260510143153 21 22 4.8 14.5 0.00 0.33 0.33 93 1018.3
20260510142649 21 58 4.8 12.9 0.00 0.33 0.33 93 1018.4
20260510142146 21 21 11.3 14.5 0.00 0.33 0.33 93 1018.5
20260510141643 21 24 6.4 11.3 0.00 0.33 0.33 93 1018.9
20260510141142 21 351 6.4 9.7 0.00 0.33 0.33 93 1018.7
20260510140637 21 60 4.8 11.3 0.00 0.33 0.33 93 1018.5
20260510140137 21 340 6.4 11.3 0.00 0.33 0.33 93 1018.5
20260510135632 21 18 4.8 9.7 0.00 0.33 0.33 93 1018.7
20260510135129 21 26 4.8 12.9 0.00 0.33 0.33 93 1018.9
20260510134626 21 29 8.0 12.9 0.00 0.33 0.33 93 1018.9
20260510134123 21 57 4.8 14.5 0.00 0.33 0.33 93 1018.8
20260510133619 21 10 6.4 11.3 0.00 0.33 0.33 93 1019.0
20260510133114 21 21 8.0 14.5 0.00 0.33 0.33 93 1018.9
20260510132612 21 54 4.8 12.9 0.00 0.33 0.33 93 1019.2
20260510132109 21 348 3.2 9.7 0.00 0.33 0.33 93 1019.1
20260510131606 21 55 3.2 9.7 0.00 0.33 0.33 93 1019.1
20260510131103 21 43 4.8 14.5 0.00 0.33 0.33 93 1019.0
20260510130559 21 99 3.2 9.7 0.00 0.33 0.33 93 1019.1
20260510130057 21 47 6.4 11.3 0.00 0.33 0.33 93 1018.9
20260510125553 21 11 6.4 14.5 0.00 0.33 0.33 93 1019.0
20260510125050 21 13 3.2 9.7 0.00 0.33 0.33 93 1018.9
20260510124546 21 19 8.0 12.9 0.00 0.33 0.33 93 1018.9
20260510124044 21 74 3.2 11.3 0.00 0.33 0.33 93 1019.1
20260510123539 21 45 6.4 14.5 0.00 0.33 0.33 93 1018.9
20260510123035 21 61 6.4 12.9 0.00 0.33 0.33 93 1019.3
20260510122531 21 78 0.0 12.9 0.00 0.33 0.33 93 1018.8
20260510122027 21 41 8.0 12.9 0.00 0.33 0.33 93 1019.1
20260510121525 21 301 4.8 9.7 0.00 0.33 0.33 93 1019.0
20260510121022 21 117 3.2 11.3 0.00 0.33 0.33 93 1018.9
20260510120519 21 2 8.0 17.7 0.00 0.33 0.33 93 1018.7
20260510120015 21 65 3.2 11.3 0.00 0.33 0.33 92 1018.8
20260510115512 21 358 3.2 16.1 0.00 0.33 0.33 92 1018.7
20260510115008 21 38 4.8 11.3 0.00 0.33 0.33 92 1018.6
20260510114504 21 43 3.2 12.9 0.00 0.33 0.33 92 1018.7
20260510114000 21 38 4.8 12.9 0.00 0.33 0.33 91 1018.7
20260510113455 21 21 3.2 14.5 0.00 0.33 0.33 91 1018.7
20260510112953 21 47 4.8 9.7 0.00 0.33 0.33 91 1018.8
20260510112450 21 6 8.0 16.1 0.00 0.33 0.33 91 1018.8
20260510111947 21 339 3.2 11.3 0.00 0.33 0.33 91 1018.6
20260510111443 21 41 11.3 16.1 0.00 0.33 0.33 91 1018.7
20260510110939 21 60 4.8 12.9 0.00 0.33 0.33 91 1018.6
20260510110435 21 30 1.6 12.9 0.00 0.33 0.33 91 1018.6
20260510105931 21 27 8.0 11.3 0.00 0.33 0.33 91 1018.7
20260510105426 21 69 6.4 9.7 0.00 0.33 0.33 91 1018.7
20260510104922 21 255 6.4 12.9 0.00 0.33 0.33 91 1018.7
20260510104419 21 28 4.8 14.5 0.00 0.33 0.33 90 1018.4
20260510103915 21 42 4.8 12.9 0.00 0.33 0.33 90 1018.3
20260510103408 21 42 3.2 14.5 0.00 0.33 0.33 90 1018.3
20260510102903 21 43 4.8 11.3 0.00 0.33 0.33 90 1018.2
20260510102359 21 103 3.2 11.3 0.00 0.33 0.33 90 1018.4
20260510101856 21 32 6.4 12.9 0.00 0.33 0.33 90 1018.3
20260510101354 21 8 6.4 11.3 0.00 0.33 0.33 90 1018.1
20260510100850 21 22 4.8 6.4 0.00 0.33 0.33 90 1018.0
20260510100342 21 39 1.6 4.8 0.00 0.33 0.33 90 1018.3
20260510095838 21 45 6.4 11.3 0.00 0.33 0.33 89 1018.2
20260510095333 21 345 8.0 12.9 0.00 0.33 0.33 88 1018.3
20260510094833 21 37 6.4 9.7 0.00 0.33 0.33 88 1018.2
20260510094328 21 31 6.4 20.9 0.00 0.33 0.33 87 1017.9
20260510093825 21 10 3.2 11.3 0.00 0.33 0.33 87 1018.1
20260510093321 21 40 3.2 6.4 0.00 0.33 0.33 87 1017.9
20260510092817 21 48 4.8 12.9 0.00 0.33 0.33 87 1017.9
20260510092313 21 70 9.7 17.7 0.00 0.33 0.33 87 1017.7
20260510091809 21 45 8.0 9.7 0.00 0.33 0.33 87 1017.7
20260510091306 21 20 6.4 16.1 0.00 0.33 0.33 87 1017.9
20260510090803 21 20 3.2 9.7 0.00 0.33 0.33 88 1017.9
20260510090300 21 15 8.0 12.9 0.00 0.33 0.33 88 1017.8
20260510085755 21 21 1.6 16.1 0.00 0.33 0.33 88 1017.8
20260510085249 21 40 4.8 6.4 0.00 0.33 0.33 88 1017.8
20260510084745 21 10 3.2 11.3 0.00 0.33 0.33 88 1017.8
20260510084243 21 48 3.2 9.7 0.00 0.33 0.33 88 1017.9
20260510083739 21 13 6.4 14.5 0.00 0.33 0.33 87 1017.7
20260510083236 21 25 1.6 14.5 0.00 0.33 0.33 87 1017.7
20260510082732 22 50 6.4 12.9 0.00 0.33 0.33 86 1017.5
20260510082229 22 42 4.8 11.3 0.00 0.33 0.33 86 1017.5
20260510081727 22 56 3.2 6.4 0.00 0.33 0.33 86 1017.5
20260510081224 22 57 4.8 20.9 0.00 0.33 0.33 86 1018.0
20260510080719 22 23 3.2 11.3 0.00 0.33 0.33 86 1018.0
20260510080215 22 50 6.4 14.5 0.00 0.33 0.33 86 1018.1
20260510075712 22 78 0.0 6.4 0.00 0.33 0.33 86 1017.8
20260510075210 22 16 11.3 17.7 0.00 0.33 0.33 86 1017.6
20260510074707 22 353 6.4 20.9 0.00 0.33 0.33 86 1018.0
20260510074203 22 26 1.6 17.7 0.00 0.33 0.33 86 1017.6
20260510073700 22 5 6.4 9.7 0.00 0.33 0.33 85 1017.9
20260510073155 22 12 11.3 14.5 0.00 0.33 0.33 85 1017.6
20260510072651 22 306 8.0 12.9 0.00 0.33 0.33 85 1017.4
20260510072148 22 33 3.2 11.3 0.00 0.33 0.33 85 1017.5
20260510071644 22 299 3.2 6.4 0.00 0.33 0.33 86 1017.9
20260510071142 22 59 8.0 11.3 0.00 0.33 0.33 86 1017.8
20260510070639 22 52 4.8 12.9 0.00 0.33 0.33 85 1018.0
20260510070137 22 32 0.0 11.3 0.00 0.33 0.33 85 1018.1
20260510065632 22 51 6.4 11.3 0.00 0.33 0.33 84 1017.9
20260510065128 23 135 9.7 16.1 0.00 0.33 0.33 83 1017.7
20260510064624 23 3 6.4 14.5 0.00 0.33 0.33 84 1017.8
20260510064121 22 19 3.2 14.5 0.00 0.33 0.33 85 1017.8
20260510063618 23 288 12.9 17.7 0.00 0.33 0.33 83 1017.9
20260510063115 23 356 6.4 17.7 0.00 0.33 0.33 84 1017.6
20260510062611 22 90 3.2 6.4 0.00 0.33 0.33 86 1017.9
20260510062107 22 14 6.4 14.5 0.00 0.33 0.33 86 1017.7
20260510061603 22 30 3.2 16.1 0.00 0.33 0.33 86 1018.1
20260510061100 22 294 3.2 9.7 0.00 0.33 0.33 87 1018.0
20260510060556 22 64 1.6 4.8 0.00 0.33 0.33 88 1018.3
20260510060053 22 71 6.4 14.5 0.00 0.33 0.33 87 1018.1
20260510055548 22 21 9.7 14.5 0.00 0.33 0.33 88 1018.2
20260510055047 22 225 3.2 9.7 0.00 0.33 0.33 87 1018.2
20260510054543 22 83 3.2 6.4 0.00 0.33 0.33 88 1018.1
20260510054037 22 35 1.6 6.4 0.00 0.33 0.33 88 1018.2
20260510053532 21 323 4.8 12.9 0.00 0.33 0.33 88 1018.5
20260510053030 21 320 4.8 14.5 0.00 0.33 0.33 88 1018.5
20260510052526 22 358 1.6 11.3 0.00 0.33 0.33 87 1018.6
20260510052022 22 37 8.0 12.9 0.00 0.33 0.33 86 1018.6
20260510051517 22 28 3.2 6.4 0.00 0.33 0.33 85 1018.7
20260510051014 22 321 4.8 11.3 0.00 0.33 0.33 85 1018.7
20260510050512 22 15 4.8 9.7 0.00 0.33 0.33 84 1018.8
20260510050008 22 301 8.0 14.5 0.00 0.33 0.33 82 1018.9
20260510045506 22 351 9.7 12.9 0.00 0.33 0.33 82 1018.9
20260510045001 23 89 1.6 14.5 0.00 0.33 0.33 81 1018.9
20260510044459 23 33 11.3 16.1 0.00 0.33 0.33 81 1018.9
20260510043955 23 304 16.1 27.4 0.00 0.33 0.33 80 1018.7
20260510043451 23 41 6.4 17.7 0.00 0.33 0.33 80 1018.8
20260510042950 23 358 6.4 14.5 0.00 0.33 0.33 80 1019.0
20260510042446 23 73 1.6 9.7 0.00 0.33 0.33 82 1018.8
20260510041941 23 31 6.4 11.3 0.00 0.33 0.33 81 1019.1
20260510041439 23 286 9.7 17.7 0.00 0.33 0.33 81 1019.1
20260510040936 23 27 9.7 14.5 0.00 0.33 0.33 82 1019.0
20260510040433 23 34 6.4 16.1 0.00 0.33 0.33 81 1019.0
20260510035928 23 5 9.7 16.1 0.00 0.33 0.33 82 1019.2
20260510035425 22 62 8.0 25.7 0.00 0.33 0.33 81 1019.1
20260510034924 23 286 16.1 25.7 0.00 0.33 0.33 81 1019.1
20260510034423 23 51 6.4 12.9 0.00 0.33 0.33 81 1019.2
20260510033919 23 308 4.8 17.7 0.00 0.33 0.33 82 1019.1
20260510033416 23 336 4.8 9.7 0.00 0.33 0.33 82 1019.5
20260510032912 22 25 4.8 11.3 0.00 0.33 0.33 84 1019.2
20260510032409 22 29 9.7 17.7 0.00 0.33 0.33 84 1019.4
20260510031905 22 7 4.8 17.7 0.00 0.33 0.33 84 1019.2
20260510031400 22 36 11.3 14.5 0.00 0.33 0.33 84 1019.2
20260510030855 22 336 8.0 12.9 0.00 0.33 0.33 84 1019.2
20260510030352 22 44 9.7 22.5 0.00 0.33 0.33 82 1019.1
20260510025850 22 20 8.0 14.5 0.00 0.33 0.33 82 1019.2
20260510025347 22 52 3.2 14.5 0.00 0.33 0.33 82 1019.2
20260510024844 22 71 6.4 14.5 0.00 0.33 0.33 83 1019.4
20260510024340 22 11 3.2 4.8 0.00 0.33 0.33 85 1019.5
20260510023836 22 352 4.8 14.5 0.00 0.33 0.33 84 1019.6
20260510023333 22 53 8.0 14.5 0.00 0.33 0.33 84 1019.7
20260510022831 22 82 1.6 6.4 0.00 0.33 0.33 85 1019.8
20260510022329 22 0 3.2 9.7 0.00 0.33 0.33 85 1019.9
20260510021828 22 88 4.8 16.1 0.00 0.33 0.33 86 1020.0
20260510021326 21 32 3.2 11.3 0.00 0.33 0.33 86 1019.9
20260510020823 21 23 6.4 6.4 0.00 0.33 0.33 86 1019.9
20260510020322 21 25 6.4 14.5 0.00 0.33 0.33 85 1019.9
20260510015819 21 304 1.6 9.7 0.00 0.33 0.33 86 1020.1
20260510015315 21 12 4.8 9.7 0.00 0.33 0.33 86 1019.9
20260510014810 21 46 3.2 9.7 0.00 0.33 0.33 86 1020.0
20260510014308 21 332 6.4 12.9 0.00 0.33 0.33 86 1019.9
20260510013804 21 25 4.8 17.7 0.00 0.33 0.33 87 1020.0
20260510013300 21 354 9.7 17.7 0.00 0.33 0.33 87 1020.3
20260510012755 21 39 3.2 11.3 0.00 0.33 0.33 88 1019.9
20260510012255 21 4 9.7 12.9 0.00 0.33 0.33 88 1020.1
20260510011754 21 270 6.4 14.5 0.00 0.33 0.33 88 1020.1
20260510011250 21 314 3.2 12.9 0.00 0.33 0.33 89 1020.2
20260510010748 21 5 6.4 11.3 0.00 0.33 0.33 89 1020.1
20260510010244 21 39 4.8 16.1 0.00 0.33 0.33 90 1020.0
20260510005741 21 323 8.0 14.5 0.00 0.33 0.33 90 1020.1
20260510005237 21 334 9.7 12.9 0.00 0.33 0.33 90 1019.9
20260510004735 21 63 3.2 11.3 0.00 0.33 0.33 91 1019.8
20260510004233 21 75 4.8 6.4 0.00 0.33 0.33 93 1019.9
20260510003730 20 57 0.0 9.7 0.00 0.33 0.33 93 1019.6
20260510003226 20 32 6.4 11.3 0.00 0.33 0.33 92 1020.0
20260510002725 20 55 1.6 11.3 0.00 0.33 0.33 92 1019.8
20260510002223 20 44 1.6 6.4 0.00 0.33 0.33 93 1019.9
20260510001719 20 357 9.7 17.7 0.18 0.33 0.33 92 1020.0
20260510001218 20 40 4.8 14.5 0.18 0.33 0.33 92 1019.9
20260510000713 20 48 3.2 6.4 0.00 0.30 0.30 93 1020.0
20260510000211 20 42 3.2 9.7 0.00 0.30 0.30 92 1019.7
20260509235707 20 47 3.2 3.2 0.00 0.30 0.30 92 1020.0
20260509235204 20 47 3.2 9.7 0.00 0.30 0.30 92 1020.0